Notices

What's New in latest Release from April 7th, 2021:

- Updated Glossary, including Speed of Maximum Gust, and Total Hourly Precipitation

- Updated national and regional climate services offices contacts and prices information

- Addition of station inventory lists for 1981-2010, 1971-2000, and 1961-1990 Normals.

If you haven't already, please take our survey and provide feedback about our website: https://eccc.sondage-survey.ca/f/LanguageSelection.aspx?s=442ca660-fcf1-47c0-95a9-59707d6fd709

Hourly Data Report for August 11, 2018

TORONTO CITY
ONTARIO
Current Station Operator: ECCC - MSC

43°40'00.000" N
79°24'00.000" W
112.50 m
6158355
71508
XTO

Download Data

Hourly Data (August 2018)
Hourly Data Report for August 11, 2018
TIME
LST
Temp Definition
°C
Dew Point Definition
°C
Rel Hum Definition
%
Precip. Amount Definition
mm

Wind Dir Definition
10's deg

Wind Spd Definition
km/h
Visibility Definition
km
Stn Press Definition
kPa
Hmdx Definition


Wind Chill Definition


Weather Definition


00:00 19.3 12.9 66 0.0 LegendMM LegendMM   100.12     LegendNANA
01:00 18.6 13.5 72 0.0 LegendMM LegendMM   100.11     LegendNANA
02:00 19.0 13.5 71 0.0 LegendMM LegendMM   100.08     LegendNANA
03:00 17.9 13.8 77 0.0 LegendMM LegendMM   100.06     LegendNANA
04:00 17.7 12.9 74 0.0 LegendMM LegendMM   100.04     LegendNANA
05:00 17.4 12.7 74 0.0 LegendMM LegendMM   100.05     LegendNANA
06:00 17.4 13.4 77 0.0 LegendMM LegendMM   100.09     LegendNANA
07:00 20.4 13.1 63 0.0 LegendMM LegendMM   100.11     LegendNANA
08:00 22.5 11.7 50 0.0 LegendMM LegendMM   100.15 25   LegendNANA
09:00 24.1 10.9 43 0.0 LegendMM LegendMM   100.16 26   LegendNANA
10:00 25.4 10.3 39 0.0 LegendMM LegendMM   100.23 27   LegendNANA
11:00 25.6 10.6 39 0.0 LegendMM LegendMM   100.25 27   LegendNANA
12:00 26.3 12.1 41 0.0 LegendMM LegendMM   100.25 29   LegendNANA
13:00 26.3 10.8 38 0.0 LegendMM LegendMM   100.22 28   LegendNANA
14:00 26.1 8.5 33 0.0 LegendMM LegendMM   100.20 27   LegendNANA
15:00 26.1 7.1 30 0.0 LegendMM LegendMM   100.16 26   LegendNANA
16:00 25.9 9.6 36 0.0 LegendMM LegendMM   100.13 27   LegendNANA
17:00 25.4 8.2 34 0.0 LegendMM LegendMM   100.14 26   LegendNANA
18:00 25.0 7.3 32 0.0 LegendMM LegendMM   100.13 25   LegendNANA
19:00 24.3 8.7 37 0.0 LegendMM LegendMM   100.20 25   LegendNANA
20:00 23.6 10.6 44 0.0 LegendMM LegendMM   100.24 25   LegendNANA
21:00 22.5 12.1 52 0.0 LegendMM LegendMM   100.29 25   LegendNANA
22:00 22.8 13.4 55 0.0 LegendMM LegendMM   100.30 26   LegendNANA
23:00 22.5 13.4 56 0.0 LegendMM LegendMM   100.30 26   LegendNANA

Notes on Data Quality.

Legend

  • E = Estimated
  • M = Missing
  • NA = Not Available*
  • [empty] = Indicates an unobserved value
Date modified: